[[{"header":{"parameterUnit":"m.s-1","parameterCategory":1,"la1":30.2991,"la2":30.254,"lo1":-89.0895,"lo2":-89.0444,"dy":0.0017,"dx":0.0017,"nx":28,"ny":28,"refTime":"2024-03-13T09:00:00:Z","depth":0,"parameterNumber":2,"parameterNumberName":"U-component_of_WINDS"},"data":[0,0,0,0,0,0,0,0,0,0,0,0,0,0,0,0,0,0,0,0,0,0,0,0,0,0,0,0,0,0,0,0,0,0,0,0,0,0,0,0,0,0,0,0,0,0,0,0,0,0,0,0,0,0,0,0,0,0,-5.7322,-5.7323,0,-5.7416,-5.7417,-5.7418,-5.7392,-5.739,-5.7388,-5.7386,-5.7476,-5.7481,-5.7485,0,0,0,0,0,0,0,0,0,0,0,0,0,-5.7115,-5.7119,-5.7322,-5.7323,-5.7325,-5.7416,-5.7417,-5.7419,-5.7392,-5.739,-5.7387,-5.7385,-5.7475,-5.748,-5.7485,0,0,0,0,0,0,0,0,0,0,0,0,0,-5.7206,-5.712,-5.7322,-5.7322,-5.7323,-5.7416,-5.7417,-5.7419,-5.7392,-5.739,-5.7387,-5.7384,-5.7473,-5.748,-5.7486,-5.7582,0,0,-5.7505,-5.7508,0,0,0,0,0,0,0,0,-5.7201,-5.7214,-5.7321,-5.7323,-5.7324,-5.7389,-5.7378,-5.7473,-5.7393,-5.7366,-5.7386,-5.7383,-5.7449,-5.7458,-5.7481,-5.7586,-5.759,-5.7506,-5.7509,-5.7512,-5.7514,0,0,0,0,0,0,0,-5.7195,-5.721,-5.7359,-5.7323,-5.7324,-5.7316,-5.7326,-5.7396,-5.7422,-5.7368,-5.7366,-5.7378,-5.745,-5.7475,-5.7483,-5.7591,-5.7505,-5.7511,-5.7515,-5.7517,-5.7779,-5.7782,0,0,0,0,0,0,-5.7188,-5.7205,-5.7356,-5.7362,-5.7254,-5.7323,-5.7334,-5.7371,-5.7422,-5.7427,-5.7381,-5.7377,-5.7466,-5.7476,-5.7486,-5.7601,-5.7512,-5.7518,-5.7521,-5.7776,-5.778,-5.7783,0,0,0,0,0,0,-5.7184,-5.7202,-5.7352,-5.7283,-5.7302,-5.7329,-5.7372,-5.7374,-5.74,-5.7431,-5.7435,-5.7402,-5.7464,-5.7477,-5.7559,-5.7603,-5.7521,-5.7526,-5.7772,-5.7777,-5.7782,-5.7831,0,0,0,0,0,0,-5.7178,-5.7201,-5.7238,-5.7284,-5.7305,-5.7424,-5.7374,-5.7378,-5.7412,-5.7407,-5.7452,-5.7457,-5.7463,-5.7549,-5.7565,-5.7611,-5.7531,-5.7768,-5.7774,-5.778,-5.7825,-5.7837,-5.7847,0,0,0,0,0,-5.7171,-5.7247,-5.724,-5.7259,-5.7353,-5.7427,-5.7439,-5.7446,-5.7416,-5.7453,-5.7473,-5.7456,-5.7597,-5.7558,-5.7575,-5.7623,-5.7765,-5.7773,-5.778,-5.7821,-5.7835,-5.7847,0,0,0,0,0,0,-5.7203,-5.7253,-5.7246,-5.734,-5.738,-5.7422,-5.7469,-5.746,-5.7508,-5.7502,-5.7507,-5.7517,-5.76,-5.762,-5.7576,-5.7719,-5.7677,-5.7688,-5.7702,-5.7715,-5.7726,-5.7717,-5.7537,0,0,0,0,0,-5.7222,-5.7279,-5.7319,-5.7398,-5.7419,-5.7441,-5.7473,-5.7476,-5.7516,-5.7532,-5.7558,-5.7597,-5.765,-5.7684,-5.7735,-5.783,-5.7838,-5.7872,-5.7883,-5.7891,-5.7899,-5.795,-5.7964,-5.7807,-5.7807,-5.7807,0,0,-5.7259,-5.7294,-5.7329,-5.7406,-5.7437,-5.7494,-5.7455,-5.7518,-5.756,-5.7541,-5.7619,-5.764,-5.7684,-5.7772,-5.7812,-5.7791,-5.7946,-5.79,-5.7907,-5.791,-5.7959,-5.7973,-5.7987,-5.7812,-5.7811,-5.781,0,0,-5.7357,-5.739,-5.7459,-5.7492,-5.7541,-5.7555,-5.7572,-5.7617,-5.7631,-5.771,-5.7697,-5.7748,-5.7839,-5.7871,-5.7898,-5.8012,-5.7997,-5.8028,-5.8082,-5.8131,-5.8144,-5.8155,-5.8192,-5.8206,-5.8037,-5.8037,-5.8037,0,-5.7396,-5.7484,-5.7495,-5.7559,-5.7592,-5.7582,-5.765,-5.7681,-5.7743,-5.7766,-5.7743,-5.7859,-5.7887,-5.7982,-5.801,-5.8034,-5.8051,-5.8021,-5.8142,-5.8153,-5.8163,-5.8199,-5.8213,-5.804,-5.804,-5.804,-5.8039,0,-5.753,-5.7591,-5.7641,-5.7703,-5.7743,-5.7809,-5.7828,-5.7867,-5.7867,-5.7884,-5.7964,-5.7999,-5.8056,-5.808,-5.808,-5.8175,-5.8161,-5.814,-5.8097,-5.8181,-5.8215,-5.8229,-5.8045,-5.8044,-5.8043,-5.8042,0,0,-5.7645,-5.7715,-5.7733,-5.7761,-5.7816,-5.7863,-5.7929,-5.7987,-5.8019,-5.8064,-5.8117,-5.8197,-5.8179,-5.8211,-5.8214,-5.8258,-5.8343,-5.8232,-5.8233,-5.8249,-5.8448,-5.846,-5.8476,-5.8336,-5.8339,-5.8341,-5.8443,0,-5.7745,-5.7862,-5.7875,-5.7979,-5.8035,-5.8027,-5.8085,-5.8124,-5.8142,-5.8191,-5.8212,-5.8267,-5.824,-5.8259,-5.8303,-5.8324,-5.8382,-5.8317,-5.8383,-5.8385,-5.8368,-5.8495,-5.8508,-5.8602,-5.8457,-5.8459,-5.8461,0,-5.7875,-5.7926,-5.8036,-5.8084,-5.8108,-5.8159,-5.8214,-5.8262,-5.8306,-5.8317,-5.8354,-5.8353,-5.842,-5.8378,-5.8468,-5.8424,-5.8452,-5.8467,-5.8471,-5.8474,-5.8425,-5.8497,-5.8633,-5.8646,-5.8482,-5.8481,-5.8479,0,-5.7945,-5.8041,-5.8119,-5.8144,-5.8202,-5.8238,-5.8264,-5.8306,-5.834,-5.8389,-5.8411,-5.8466,-5.8495,-5.8537,-5.8549,-5.8518,-5.8639,-5.8599,-5.8647,-5.8647,-5.8669,-5.8667,-5.8808,-5.8694,-5.8694,-5.8694,-5.8694,0,-5.8052,-5.8119,-5.8151,-5.8198,-5.8273,-5.8288,-5.8361,-5.8385,-5.8423,-5.8473,-5.8471,-5.8519,-5.8535,-5.8585,-5.8597,-5.8669,-5.8683,-5.8691,-5.8692,-5.8689,-5.8688,-5.8705,-5.8697,-5.8698,-5.8697,-5.8696,-5.8695,0,-5.814,-5.8165,-5.8249,-5.8299,-5.8313,-5.8366,-5.8407,-5.8453,-5.8473,-5.8537,-5.8553,-5.8583,-5.8642,-5.8661,-5.8732,-5.8739,-5.8823,-5.8821,-5.8808,-5.8807,-5.8854,-5.8848,-5.9007,-5.9028,-5.8904,-5.8906,-5.8907,0,-5.8205,-5.8257,-5.8313,-5.8348,-5.8376,-5.8433,-5.8469,-5.8486,-5.8524,-5.858,-5.8618,-5.8677,-5.8725,-5.882,-5.8846,-5.8901,-5.8897,-5.895,-5.8905,-5.89,-5.8894,-5.8889,-5.8893,-5.8956,-5.8957,-5.8959,-5.8959,0,-5.8316,-5.8327,-5.838,-5.8438,-5.8482,-5.8528,-5.8572,-5.8601,-5.8625,-5.8667,-5.8728,-5.8766,-5.884,-5.8898,-5.8954,-5.8979,-5.8972,-5.8974,-5.8988,-5.8983,-5.8972,-5.8975,-5.8827,-5.8969,-5.8968,-5.8967,-5.8967,-5.8967,-5.8392,-5.8438,-5.8485,-5.8545,-5.8581,-5.8623,-5.8668,-5.8695,-5.8747,-5.881,-5.8817,-5.8883,-5.8927,-5.9002,-5.903,-5.9081,-5.9066,-5.9086,-5.909,-5.9094,-5.9096,-5.8968,-5.9092,-5.9092,-5.9091,-5.9091,-5.9091,0,-5.8501,-5.8532,-5.8587,-5.8651,-5.8697,-5.8692,-5.8741,-5.878,-5.8839,-5.8882,-5.893,-5.9001,-5.9058,-5.9091,-5.9148,-5.9182,-5.9181,-5.9196,-5.9191,-5.9197,-5.9108,-5.9089,-5.9196,-5.9196,-5.9196,-5.9196,-5.9196,-5.9196,-5.8563,-5.8639,-5.8655,-5.875,-5.878,-5.8846,-5.8875,-5.8913,-5.8947,-5.9027,-5.9076,-5.9098,-5.9137,-5.9197,-5.9249,-5.9257,-5.9276,-5.9293,-5.9299,-5.9214,-5.9203,-5.9193,-5.9175,-5.9298,-5.9298,-5.9383,-5.9384,-5.9384]},{"header":{"parameterUnit":"m.s-1","parameterCategory":1,"la1":30.2991,"la2":30.254,"lo1":-89.0895,"lo2":-89.0444,"dy":0.0017,"dx":0.0017,"nx":28,"ny":28,"refTime":"2024-03-13T09:00:00:Z","depth":0,"parameterNumber":3,"parameterNumberName":"V-component_of_WINDS"},"data":[0,0,0,0,0,0,0,0,0,0,0,0,0,0,0,0,0,0,0,0,0,0,0,0,0,0,0,0,0,0,0,0,0,0,0,0,0,0,0,0,0,0,0,0,0,0,0,0,0,0,0,0,0,0,0,0,0,0,1.9679,1.9679,0,1.969,1.969,1.969,1.9715,1.9716,1.9716,1.9717,1.9723,1.9722,1.9722,0,0,0,0,0,0,0,0,0,0,0,0,0,1.9676,1.9676,1.9679,1.9679,1.9679,1.969,1.969,1.969,1.9715,1.9716,1.9717,1.9717,1.9723,1.9722,1.9722,0,0,0,0,0,0,0,0,0,0,0,0,0,1.9681,1.9676,1.9679,1.9693,1.9694,1.969,1.969,1.969,1.9715,1.9716,1.9717,1.9717,1.9723,1.9722,1.9722,1.9703,0,0,1.972,1.972,0,0,0,0,0,0,0,0,1.9681,1.9681,1.9691,1.9692,1.9694,1.9702,1.9691,1.9694,1.9715,1.9707,1.9717,1.9718,1.9715,1.9715,1.9715,1.9703,1.9703,1.972,1.972,1.972,1.972,0,0,0,0,0,0,0,1.968,1.9681,1.9683,1.9691,1.9693,1.9698,1.9699,1.9692,1.9706,1.9708,1.971,1.9711,1.9716,1.9716,1.9715,1.9703,1.972,1.972,1.9719,1.9719,1.9679,1.9679,0,0,0,0,0,0,1.9678,1.968,1.9683,1.9683,1.9689,1.9697,1.9699,1.9699,1.9706,1.9708,1.971,1.9712,1.9716,1.9716,1.9716,1.9696,1.972,1.9719,1.9719,1.968,1.9679,1.9678,0,0,0,0,0,0,1.9678,1.9678,1.9682,1.9682,1.9683,1.9696,1.9696,1.9698,1.9698,1.9708,1.971,1.9708,1.9717,1.9716,1.9707,1.9697,1.9719,1.9718,1.9681,1.968,1.9679,1.9655,0,0,0,0,0,0,1.9678,1.9678,1.9672,1.9682,1.9683,1.9674,1.9695,1.9698,1.9698,1.9701,1.9707,1.9708,1.9717,1.9708,1.9706,1.9696,1.9718,1.9682,1.968,1.9679,1.9657,1.9653,1.965,0,0,0,0,0,1.9678,1.9662,1.9671,1.9671,1.9676,1.9673,1.9674,1.9686,1.9697,1.9691,1.9697,1.9708,1.9698,1.9706,1.9705,1.9695,1.9683,1.9681,1.9679,1.9658,1.9654,1.9651,0,0,0,0,0,0,1.9647,1.9664,1.9674,1.9662,1.9666,1.9678,1.9669,1.9681,1.9681,1.9683,1.9697,1.9698,1.9687,1.969,1.9699,1.9678,1.9692,1.969,1.9677,1.9673,1.967,1.9669,1.9718,0,0,0,0,0,1.964,1.9638,1.9652,1.964,1.9642,1.9656,1.9655,1.9665,1.9669,1.9671,1.9677,1.9679,1.9677,1.9675,1.9673,1.9658,1.966,1.965,1.9647,1.9644,1.9642,1.9637,1.9633,1.9673,1.9673,1.9673,0,0,1.9623,1.9632,1.9629,1.9634,1.9639,1.9637,1.9657,1.9652,1.9651,1.9669,1.9662,1.9667,1.967,1.9659,1.9654,1.9661,1.9632,1.9642,1.964,1.9639,1.9635,1.9631,1.9627,1.9672,1.9672,1.9672,0,0,1.9591,1.9598,1.959,1.9595,1.9604,1.9613,1.9611,1.9622,1.9627,1.962,1.9635,1.9632,1.9627,1.9631,1.9631,1.9605,1.9616,1.9604,1.9587,1.9581,1.9578,1.9575,1.9567,1.9564,1.9602,1.9602,1.9602,0,1.9569,1.9567,1.9583,1.958,1.9582,1.9602,1.9594,1.9598,1.9604,1.9605,1.9613,1.9611,1.9614,1.9605,1.9599,1.9598,1.9597,1.9603,1.9577,1.9575,1.9573,1.9565,1.9562,1.9601,1.9601,1.9601,1.9601,0,1.954,1.9539,1.9531,1.954,1.9542,1.9535,1.9551,1.955,1.956,1.9569,1.9563,1.9569,1.957,1.9568,1.9576,1.9561,1.9565,1.9575,1.9589,1.9567,1.9561,1.9558,1.9599,1.9599,1.96,1.96,0,0,1.9487,1.9509,1.9506,1.9511,1.9524,1.9522,1.9518,1.9522,1.9521,1.9525,1.9522,1.952,1.953,1.9532,1.9541,1.9536,1.9517,1.9547,1.9547,1.9542,1.9502,1.9495,1.9491,1.9524,1.9524,1.9524,1.9502,0,1.9459,1.9454,1.9471,1.9461,1.9461,1.9482,1.9478,1.9485,1.9493,1.9494,1.9502,1.9501,1.9514,1.9516,1.9512,1.952,1.9509,1.9522,1.9521,1.9521,1.952,1.9487,1.9479,1.9458,1.9499,1.9499,1.9498,0,1.9425,1.9431,1.9423,1.9439,1.9439,1.9436,1.9442,1.9442,1.9451,1.9457,1.9461,1.9473,1.9469,1.9484,1.9479,1.9488,1.9489,1.9493,1.9492,1.9493,1.9508,1.9487,1.9451,1.9449,1.9494,1.9494,1.9495,0,1.9389,1.9395,1.9392,1.9396,1.9414,1.9411,1.9418,1.9428,1.943,1.9435,1.9437,1.944,1.9442,1.9445,1.9458,1.9467,1.9452,1.9467,1.9458,1.9457,1.9453,1.9453,1.9418,1.9453,1.9453,1.9453,1.9453,0,1.9356,1.9351,1.9377,1.9375,1.9369,1.9388,1.9382,1.9391,1.94,1.94,1.9417,1.9416,1.9433,1.9434,1.9443,1.9439,1.944,1.9445,1.9448,1.9444,1.9443,1.9444,1.9446,1.9452,1.9452,1.9452,1.9453,0,1.9315,1.9333,1.9331,1.9349,1.9354,1.9349,1.9365,1.9363,1.9374,1.9374,1.9375,1.9391,1.9393,1.9407,1.9411,1.9418,1.9411,1.9416,1.9408,1.941,1.9401,1.9402,1.9365,1.9362,1.9398,1.9398,1.9397,0,1.9293,1.929,1.931,1.9312,1.9319,1.9322,1.9326,1.9345,1.9347,1.9359,1.9356,1.9361,1.9365,1.9368,1.9379,1.9384,1.9389,1.9376,1.939,1.9387,1.9391,1.9391,1.9391,1.9373,1.9373,1.9372,1.9372,0,1.9253,1.9263,1.9268,1.9278,1.9283,1.929,1.9298,1.9299,1.932,1.9322,1.9326,1.933,1.9337,1.9341,1.9348,1.9354,1.9367,1.9368,1.9366,1.9362,1.9359,1.9362,1.9401,1.9368,1.9369,1.9369,1.9369,1.9369,1.9222,1.9221,1.9236,1.9242,1.9252,1.926,1.9261,1.9273,1.9278,1.9286,1.9297,1.93,1.9311,1.9322,1.9327,1.933,1.9337,1.9333,1.9333,1.9332,1.9331,1.9359,1.9331,1.9331,1.9331,1.9331,1.9331,0,1.9184,1.9195,1.9201,1.9215,1.922,1.9234,1.9245,1.9248,1.9251,1.9261,1.9267,1.9272,1.9278,1.9291,1.9297,1.9297,1.9303,1.9298,1.9298,1.93,1.9323,1.9325,1.9293,1.9293,1.9293,1.9293,1.9293,1.9293,1.9165,1.9165,1.9177,1.9183,1.9194,1.9199,1.9204,1.9212,1.9221,1.9227,1.9233,1.9243,1.9254,1.9262,1.9268,1.9271,1.9273,1.9267,1.9272,1.9294,1.9298,1.9301,1.9303,1.9267,1.9267,1.9249,1.9248,1.9248]}]]